UITMSAT-2

Last updated on Sun Sep 20 2026 00:02:05 GMT+0000 (Coordinated Universal Time)

1 67686U 98067YC 26262.04776538 .00203393 00000+0 80180-3 0 9990 2 67686 51.6181 170.6922 0008124 164.7475 195.3775 15.85686331 35082
UTC large
Height (km)
Speed (km/s)
/
Latitude / Longitude
Inclination (degrees)
Orbital Period (minutes)
Azimuth
Elevation
Range (km)
Doppler Factor

Next 0 passes for location: London (51.5072 / 0.1276)

No passes found over London.
UITMSAT-2